[Date Prev][Date Next][Thread Prev][Thread Next][Date Index][Thread Index]

[jamsat-news:1031] jas2info #118



=========================   最新情報   ==============================

        Last updated :Sat.20-Feb.-1999 17:00 (JST) #118

====================================================================
   
     衛星情報 FOシリーズの軌道要素、テレメトリ、QSOの状況等を
   まとめてみました.

  1)FO−29(ふじ3号)は2月20日 (土)の15:30(JST)からの
     パスではJAアナログモードで運用されていました.信号は力強いRS59+で
     安定したテレメトリを送信しておりました.
         
 ■ 軌道要素1:「jamsatーkeps:862」より
                 SB KEPS @ AMSAT  $ORB99043.N
                 2Line Orbital Elements 99043.AMSAT

  HR AMSAT ORBITAL ELEMENTS FOR AMATEUR SATELLITES IN NASA FORMAT
  FROM WA5QGD FORT WORTH,TX February 12, 1999
  SEND SUBSCRIBE/UNSUBSCRIBE TO majordomo@amsat.org ONLY
  BID: ORB99043.N
   
  DECODE 2-LINE ELSETS WITH THE FOLLOWING KEY:
  1 AAAAAU 00  0  0 BBBBB.BBBBBBBB  .CCCCCCCC  00000-0  00000-0 0  DDDZ
  2 AAAAA EEE.EEEE FFF.FFFF GGGGGGG HHH.HHHH III.IIII JJ.JJJJJJJJKKKKKZ
  KEY: A-CATALOGNUM B-EPOCHTIME C-DECAY D-ELSETNUM E-INCLINATION F-RAAN
  G-ECCENTRICITY H-ARGPERIGEE I-MNANOM J-MNMOTION K-ORBITNUM Z-CHECKSUM

  TO ALL RADIO AMATEURS BT

 FO-29
  1 24278U 96046B   99042.91017711 -.00000030  00000-0  27909-5 0  2246
  2 24278  98.5423  10.8957 0352129  58.6665 304.8441 13.52658532122878
 
 ■ 軌道要素2:「jamsatーkeps:861」より
                 SB KEPS @ AMSAT  $ORB99043.O
                 Orbital Elements  99043.OSCAR

  HR AMSAT ORBITAL ELEMENTS FOR OSCAR SATELLITES
  FROM WA5QGD FORT WORTH,TX February 12, 1999
  SEND SUBSCRIBE/UNSUBSCRIBE TO majordomo@amsat.org ONLY
  BID: ORB99043.O
  TO ALL RADIO AMATEURS BT

  Satellite: FO-29
  Catalog number: 24278
  Epoch time:      99042.91017711
  Element set:     224
  Inclination:       98.5423 deg
  RA of node:        10.8957 deg
  Eccentricity:    0.0352129
  Arg of perigee:    58.6665 deg
  Mean anomaly:     304.8441 deg
  Mean motion:   13.52658532 rev/day
  Decay rate:       -3.0e-07 rev/day^2
  Epoch rev:           12287
  Checksum:              311
 -----------------------------------------------------------
 2)FO−29(ふじ3号)の 2月20日(土)のJAアナログテレメトリの一部分は
     次のようになっていました.
 AS12401C1 20FEB99
 JST  15:31 - 15:41

 HI HI A6 C7 88 D5 10 6A 1E 0D 01 E2 7A A3 7C 61 95 92 TEQ6E A4 A1 A3 A4 A1 
 HI HI A6 C7 88 D5 10 6A 1E          71     2 61 95  
 HI HI A6 C7 88 D5 10    1E 0D 01 E2 4B  2 61 61 95 92 B0 89 A4 A1 A3 A4 A1 
 HI HI A6 C7 88 D5 10 6B 1E 0D 01 E2    AA 78 61 95 92 B0 75 A4 A1 A3 A4 A1
 HI HI E6 C7 88 D5 10 6A 1E 0D 01 E2 4     8A 61 96 92 B0 82 A4 A2 A3 A4 A1
 HI HI E6 C7 88 D5 10 6B 1E 0D 01 E2 52 A7 81 61 95 92 B0 7C A4 A0 A2 A4 A1 
 HI HI E6 C7 88 D1 10 6C 1E 0D 01 E2 6D AF 77 61 95 92 B0 78 A4 A0 A2 A3 A1 
 HI HI E6 C7 88 D5 10 6D 1E 0D 01 E2 68 A3 87 61 96 92 B0 95 A3 A0 A2 A3 A1 
 HI HI E6 C7 88 D5 10 6D 1E 0D 01 E2 44 A5 86 61 96 92 B0 83 A3 A0 A2 A3 A1 
 HI HI E6 C7 8O D5 10 6D 1E 0D 01 E2 6E B4 6D 62 95 92 AD 76 A3 A0 A1 A3 A1 
 HI HI E6 C7 88 D5 10 6E 1E 0D 01 E2 85 A0 6C 61 95 92 B0 85 A3 A0 A1 A3 A1
 HI HI E6 C7 88 D5 10 6E 1E 0D 01 E2 A0 90 7A 61 95 93 B0 64 A3 A0 A1 A3 A1 
 HI HI E6 C7 88 55 10 71 1E 0D 01 E2 4B AC 71 62 96 93 AD 7F A3 A0 A1 A2 A1 
 HI HI E6 C7 88 51 10 73 1E 0D 01 E2             94 92 A8 7B A3 9F A0 A2 A1 
 HI HI E6 C7 88 D1 10 74 1E 0D 01 E2 63 79 7B 61 95 92 B0 80 A3 9F A0 A2 A1 
 HI HI E6 C7 88 D5 10 75 1E 0D 01 E2 23 8E 7E 61 95 93 B0 78 A3 9F A0 A2 A1 
 HI HI E6 C7 88 D1 10 75 1E 0D 01 E2 8F A1 67 64 95 92 A8 76 A2 9F A0 A2 A1 
 HI HI E6 C7 88 D1 10 75 1E 0D 01 E2 9C 6E 6B 61 95 92 B1 D6 A2 9F A0 A2 A1 
 HI HI A6 C7 88 D1 10 76 1E 0D 01 E2 22 65 7A 61 96 93 B1 69 A2 9F A0 A2 A1 
 
 3)  JAアナログテレメトリの最後の一行の換算例.

   テレメトリ	内   容	     換算値	単 位
 3C	磁気センサーZ軸	=	76470.6	nT
 3D	磁気センサX軸	=	53921.6	nT
 4A	太陽電池発生電流	=	 1049.0	mA
 4B	B充放電電流	=	  -98.8	mA
 4C	B端子電圧	=	   16.0	V
 4D	B中間端子電圧	=	    7.0	V
 5A	バス電圧 	=	   17.4	V
 5B	JTA送信電力	=	 1292.8	mW
 5C 	構体温度1	=	   19.0	℃
 5D	構体温度2	=	   20.1	℃
 6A	構体温度3	=	   19.7	℃
 6B	構体温度4	=	   19.0	℃
 6C	Bセル温度	=	   19.4	℃

 *計算処理は OFFICE 97 を使用.
  −−−−−−−−−−−−−−−−−−−−−−−−−−−−−−−−−−−−−−
  
・次のJAアナログのテレメトリデータも取得できました.参考までに提示しておきます.

 AS12293C1   12Feb99
 JST  15:46 - 15:59

 HI HI AE C7 88 55 1E 6A FF 0D 00 71 59 A5 78 60 (4 92 B0 79 A7 A4 A6 A7 A5   
 HI HI AE C7 88 55 03 6A FF 0D 00 71 48 9B 7F 61 94 92 B0 8A A7 A4 A6 A7 A5 
 HI HI AE C7 88 55 08 6A FF 0D 00 71 5E 9C 87 60 94 92 B0 74 A7 A4 A6 A7 A5 
 HI HI AE C7 88 55 0D 6A FF 0D 00 71 81 A6 81 60 94 92 B0 75 A7 A4 A6 A7 A5 
 HI HI AE C7 88 55 12 6A FF 0D 00 71 75 A0 7B 61 95 92 B0 7E A6 A4 A6 A7 A5 
 HI HI AE C7 88 55 17 6A FF 0D 0  71 42 8A 78 61 95 92 B0 8E A6 A3 A5 A6 A5 
 HI HI AE C7 88 55 1C 6A FF 0D 00 71 31 7E 81 61 95 92 B0 6B A6 A3 A5 A6 A5 
 HI HI AE C7 88 55 11 6A FF 0D 00 71    8D 80 60 94 92 B0 77 A6 A3 A5 A6 A5 
 HI HI AE C7 88 55 0B 6A FF OE 0D 71 87 7E 73 61 95 92 B0 75 A6 A3 A5 A6 A5 
 HI HI AE C7 88 55 10 6A FF 0D 00 71 3C 5A 73 61 95 92 B0 85 A6 A3 A5 A6 A5 
 HI HI AE C7 88 55 15 6A FF 0D 00 71 29 58 80 61 95 92 B0 7D A6 A3 A5 A6 A5 
 HI HI AE C7 88 51 1A 6B FF 0D 00 71 6F 75 7D 60 95 92 B0 66 A6 A3 A5 A6 A5 
 HI HI AE C7 88 55 1F 6C FF 0D 00 71 B2 7C 6D 60 95 92 B0 6F A6 A3 A5 A6 A5 
 HI HI AE C7 88 51 04 6D FF 0D 00 71 86 53 70 61 95 92 B0 84 A6 A3 A5 A6 A5 
 HI HI AE C7 88 51 09 6D FF 0D 00 71 48 2A 72 61 95 92 B0 49 A5 A2 A5 A5 A5 
 HI HI AE C7 88 51 0E 6D FF 0D 00 71 36 36 82 61    

 AS12305C1   13FEB99
 JST 13:15 - 13:19

 HI HN AE C7 88 55 18 6D FF 0D 00 71 6D 3F 89 61 85 A5 A3 A5 A5 A4 
 HI HI AE C7 88 55    6D FF 1A 00 71 93 99 5E 60 95  2 B0 6A A5 A3 A5 A4 
 HI HI AE C7 88 55 O 0C 6D FF 0D 8E3 71 59 6A 6I 

 AS12306C1    13FEB99
 JST  14:57 - 15:06

 HI HI AE C7 88 55 1C 6D FF 0A 00 71 2C 70 75 61 95 92 B0 6F A5 A2 A4 A6 A4 
 HI HI AE C7 88 55 01 6D FF 0D 00 71 3C 69 78 61 95 92 B0 76 A5 A2 A4 A5 A4  
 HI HI AE C7 88 55 06 6D FF 0D 00 71 90 79 6F 60 95 92 B0 82 A5 A2 A4 A5 A4 
 HI HI AE C7 88 55 0B 6D FF 0D 00 71 AE 7A 6E 61 95 92 B0 65 A5 A2 A4 A5 A4  
 HI HI AE C7 88 55 10 6D FF 0D 00 71 6E 5D 6F 61 95 92 B0 7B A5 A1 A4 A5 A4 
 HI HE AE C7 88 55 15 6D FF 0D 00 71 2A 42 7B 61 95 92 B0 A4 A5 A1 A4 A5 A4 
 HI HI AE C7 88 55 1A 6D FF 0D 90 71 41 49 75 61 95 92 B0 81 A5 A1 AS A5 A4 
 HI HI AE C7 88 55 1F 6D FF 0D 00 71 9A 5F 6A 60 94 92 B0 87 A5 A1 A3 A5 A4 

 AS12334C1 15FEB99
 JST  16:38 - 16:44



 HI HI AE C7 88 55 17 7C FF 1D 00 71  C 98 86 60 94 91 B0 DE A5 A2 A4 A4 A3 
 HI HI AE C7 88 55                         65 60 94 91 B0 5E A5 A2 A4 A4 A3 
 HI HI AE C7 88 55 0D 7C FF 1D 00 71 75 78 6F 60 94 91 B0 70 A5 A2 A3 A4 A3
 HI HI AE C7 88 55 0C 7C FF 1A 00 71 AE 6D 84 60 94 91 B0 5A A5 A2 A4 A4 A3
 HI HI AE C7 88 55 10 7C FF 0D 00 71 90 9D 7C 60 94 91 B0 6A A5 A2 A3 A4 A3 
 HI HI AE C7 88 55 16 7C FF 0D 00 61 3D AF 65 60 94 92 B0 5B A5 A2 A3 A4 A3 
 HI HI AE C7 88 55 1B 7C FF 0D 00 71 4C 72 68 60 94 92 B0 7A A4 A2 A3 A3 A3 
 HI HI AE C7 88 55 00 7C FF 0D 00 7I 93 3C 73 60 84 92 B9 51 A4 A1 A3 A3 A3 

 AS12347C1   16FEB99
 JST   15:38 - 15:54

 HI HI AE C7 88 55 1F AC 09 0D    71 82 A1 72 60 94 91 B0 DE AE A3 A5 A6 A3 
 HI HI AE C  88 55  0 AB FF 00 00 71 55    8A 60 94 91 B0 69 A6 A2 A  A6 A3 
 HI HI AE C7 88 55          OD 00 71 73 A2 72 60 94 91 B0 6E A6 A2 A4 A6 A3 
 HI HI AE C7 87 HS  3 AC FF 0D 00 71 69 AB    60 94 91 B0 62 A6 A2 A4 A6 A3 
 HI HI AE C7 88 55                               94 91 B0 77 A6 A2 A4 A5 A3
 HI HI AE C7 88 55 1D AE FF 0D 00 71 72 9E 73 60 94 91 B0 B7 A6 A2 A4 A5 A3 
 HI HI AE C7 88 55 0A AC FF 0D 00 71 82 AC 79 60 94 91 B0 84 A6 A2 A4 A5 A3 
 HI HI AE C7 88 55 07 AC FF 0D 00 71 59 B0 6B 60 94 91 B0 7F A5 A2 A4 A5 A3 
 HI HI AE C7 88 55 0C AC FF 0D 00 71 3  99 71 60 94 91 B0 6E A5 A2 A4 A5 A3 
 HI HI AE C7 88 55 11 AC 05 0D 00 71 72 8D 7C 60 94 91 B0 8C A5 A1 A4 A5 A3 
 HI HI AE C7 88 55 16 AC FF 0D 00 71 9D A1 76 60 94 91 B0 8D A5 A1 A4 A5 A3 
 HI HI AE C7 88 55 1B AC FF 0D 00 71 66 A6 6D 60 94 91 B0 79 A5 A1 A4 A5 A3 
 HI HI AE C7 88 55          0D 00 71 25 88 6F 61 94 92 B0 89 A5 A1 A4 A5 A3 
 HI HI AE C7 88 55 05 AC FF 0D 00 71 57 75 78 60 94 91 B0 54 A5 A1 A4 A5 A3 
 HI HI AE C7 88 55 0B AC FF 0D 00 71 AC 86 78 60 95 92 B0 7A A5 A1 A3 A5 A3 
 HI HI AE C7 88 55 0F AC FF 0D 00 71 8C 8D 6F 60 94 92 B0 89 A5 A1 A3 A5 A3 
 HI HI AE C7 88 55 15 B0 FF 0D 00 71 28 6E 6E 61 94 92 B0 7C A5 A1 A3 A5 A3 
 HI HI AE C7 88 51 1A C1 FF 0D 00 71 34 58 71 61 94 

 AS12388C1  19FEB99
 JST  16:30 - 16:33

                                        C 81 60 94 91 B0 C  A3 9F A2 A2 A0 
 HI HI AE C7 88 55 1E 1D FF 00 00 71 8C AF 72 60 94 91 B0 4A A2 9F A1 A2 A0 
 HI HI AE C7 88 55 18 1D FF 0D 00 71 6B 98 76 60 94 91 B0 99 A2 9F A1 A2 A0 
 HI HI AE C7 88 55 1D 1D FF 1E 00 71          60 94 91 B0    A2 9F A1 A2 A0 
 HI HI AE C6 Z8  

 ===============================================================================
  4)FO−20(ふじ2号)のCWテレメトリは1月30日(土)19:37(JST)の
     パスではやはり単一トーンの連続音から唸りを伴った連続音になっいましたがQSOは
     通常どうり使え、JA7CIA局等のCQが聞こえました.
---------------------------------------------------------------------------

 ■ 軌道要素1 :出典は「ふじ3号」に同じ.
 
  FO-20
  1 20480U 90013C   99041.17672491 -.00000009  00000-0  44328-4 0 01310
  2 20480 099.0369 260.0129 0541109 092.4028 273.9103 12.83249124422040

 ■ 軌道要素2 :出典は「ふじ3号」に同じ.  
               
  Satellite: FO-20
  Catalog number: 20480
  Epoch time:      99041.17672491
  Element set:    0131
  Inclination:      099.0369 deg
  RA of node:       260.0129 deg
  Eccentricity:    0.0541109
  Arg of perigee:   092.4028 deg
  Mean anomaly:     273.9103 deg
  Mean motion:   12.83249124 rev/day
  Decay rate:       -9.0e-08 rev/day^2
  Epoch rev:           42204
  Checksum:              277

  ====================    FO-20のQSOの状況 ==========================
  =====================================================================
 5)JARL のホームページに新しい運用の予定が記載されていましたのでご紹介します.

        ■ ふじ3号/FO−29 ■  
  
  ふじ3号(JAS−2) 運用予定 

☆☆ デジトーカ運用を2月21日〜24日の期間に変更 ☆☆
  運用日程について     

  2月15日 〜 2月18日     アナログ系運用
 ☆2月21日 〜 2月24日     デジトーカ運用(:FM音声メッセージ送信)
 *:デジタル系1200bps運用でしたが2bitエラーが発生したため急きょ予定を変更致しました。

  運用予定の変更について    

